COSMOS 2361 1 25590U 98076A 10210.83695360 .00000028 00000-0 14322-4 0 4097 2 25590 082.9323 173.9008 0032763 034.0504 326.2747 13.72723438580953 COSMOS 2378 1 26818U 01023A 10210.50515109 +.00000017 +00000-0 +17477-5 0 04007 2 26818 082.9248 200.2589 0033389 000.4734 359.6435 13.73745560458250 COSMOS 2389 1 27436U 02026A 10210.47806323 +.00000018 +00000-0 +29624-5 0 01381 2 27436 082.9513 141.3957 0044753 245.1025 114.5472 13.74745165409936 COSMOS 2398 1 27818U 03023A 10210.39209975 +.00000049 +00000-0 +36970-4 0 09860 2 27818 082.9463 089.0160 0030034 222.4085 137.4745 13.71967739358085 COSMOS 2407 1 28380U 04028A 10210.69246979 .00000046 00000-0 32557-4 0 8075 2 28380 082.9555 049.2988 0037682 272.9864 086.6973 13.75856108302223 COSMOS 2414 1 28521U 05002A 10211.66230482 .00000040 00000-0 21285-4 0 9852 2 28521 082.9500 108.4866 0039290 303.5321 056.2097 13.87361867279734 COSMOS 2429 1 32052U 07038A 10210.92554270 +.00000008 +00000-0 -78285-5 0 00308 2 32052 082.9809 159.6798 0037111 228.6788 131.1171 13.74704951144587 COSMOS 2454 1 35635U 09039A 10211.63139013 .00000138 00000-0 10000-3 0 6087 2 35635 082.9555 102.9537 0018116 293.3394 066.5860 13.89394924 51992 COSMOS 2463 1 36519U 10017A 10211.59683339 .00000015 00000-0 00000+0 0 2846 2 36519 082.9566 189.9211 0037231 022.6541 337.6250 13.71251286 12969